CEB4138 RPVM-RPMY

Flight info

Callsign CEB4138
Flight time 0h 30m
Altitude 31000
Route DIMLO SAGOL
Aircraft A20N/L-SDE2E3FGHIJ1RWXY/C

Departure

Time 2026-05-07 09:52
Airport Mactan Cebu International Airport (RPVM)

Arrival

Time 2026-05-07 10:22
Airport Laguindingan International Airport (RPMY)
Time Latitude Longitude Altitude Speed Heading
2026-05-07 09:45 10.31415 123.97926 40 ft 0 kts 360°
2026-05-07 09:46 10.31416 123.97926 40 ft 0 kts 358°
2026-05-07 09:46 10.31418 123.97924 40 ft 0 kts 322°
2026-05-07 09:47 10.31414 123.97917 40 ft 2 kts 217°
2026-05-07 09:47 10.31386 123.97911 40 ft 5 kts 190°
2026-05-07 09:47 10.31341 123.97900 40 ft 7 kts 178°
2026-05-07 09:47 10.31286 123.97935 38 ft 11 kts 135°
2026-05-07 09:48 10.31225 123.97984 36 ft 10 kts 184°
2026-05-07 09:48 10.31155 123.97935 36 ft 13 kts 225°
2026-05-07 09:48 10.31084 123.97862 36 ft 15 kts 225°
2026-05-07 09:48 10.31001 123.97779 35 ft 18 kts 225°
2026-05-07 09:49 10.30906 123.97684 33 ft 19 kts 225°
2026-05-07 09:49 10.30803 123.97581 29 ft 21 kts 225°
2026-05-07 09:49 10.30692 123.97469 25 ft 22 kts 225°
2026-05-07 09:49 10.30581 123.97358 25 ft 22 kts 225°
2026-05-07 09:50 10.30469 123.97245 24 ft 22 kts 225°
2026-05-07 09:50 10.30389 123.97169 22 ft 12 kts 206°
2026-05-07 09:50 10.30313 123.97198 22 ft 10 kts 124°
2026-05-07 09:50 10.30324 123.97238 22 ft 0 kts 40°
2026-05-07 09:51 10.30326 123.97240 22 ft 3 kts 40°
2026-05-07 09:51 10.30554 123.97467 25 ft 89 kts 44°
2026-05-07 09:51 10.31164 123.98083 114 ft 148 kts 45°
2026-05-07 09:52 10.31910 123.98845 739 ft 158 kts 45°
2026-05-07 09:52 10.32699 123.99648 1506 ft 165 kts 45°
2026-05-07 09:52 10.33416 124.00588 2243 ft 179 kts 66°
2026-05-07 09:52 10.33563 124.01852 2939 ft 195 kts 109°
2026-05-07 09:53 10.32708 124.02931 3717 ft 210 kts 153°
2026-05-07 09:53 10.31256 124.03162 4494 ft 227 kts 193°
2026-05-07 09:53 10.29841 124.02364 5301 ft 245 kts 227°
2026-05-07 09:53 10.28746 124.01007 6074 ft 259 kts 227°
2026-05-07 09:54 10.27215 123.99989 6719 ft 275 kts 194°
2026-05-07 09:54 10.25302 124.00028 7633 ft 280 kts 160°
2026-05-07 09:54 10.23630 124.00992 8606 ft 282 kts 145°
2026-05-07 09:54 10.21972 124.02075 9511 ft 286 kts 150°
2026-05-07 09:55 10.20207 124.03021 10386 ft 291 kts 154°
2026-05-07 09:55 10.18327 124.03858 11124 ft 300 kts 158°
2026-05-07 09:55 10.16371 124.04615 11929 ft 305 kts 160°
2026-05-07 09:55 10.14350 124.05331 12776 ft 309 kts 161°
2026-05-07 09:56 10.12310 124.06015 13598 ft 312 kts 162°
2026-05-07 09:56 10.10226 124.06692 14403 ft 316 kts 162°
2026-05-07 09:56 10.08124 124.07365 15188 ft 320 kts 162°
2026-05-07 09:56 10.05982 124.08041 15959 ft 324 kts 162°
2026-05-07 09:57 10.03825 124.08720 16707 ft 327 kts 162°
2026-05-07 09:57 10.01652 124.09401 17434 ft 331 kts 163°
2026-05-07 09:57 9.99435 124.10094 18148 ft 335 kts 163°
2026-05-07 09:57 9.97191 124.10796 18845 ft 338 kts 163°
2026-05-07 09:58 9.94941 124.11498 19518 ft 342 kts 163°
2026-05-07 09:58 9.92654 124.12212 20185 ft 345 kts 163°
2026-05-07 09:58 9.90329 124.12939 20847 ft 349 kts 163°
2026-05-07 09:58 9.87987 124.13669 21497 ft 352 kts 163°
2026-05-07 09:59 9.85631 124.14404 22132 ft 356 kts 163°
2026-05-07 09:59 9.83267 124.15142 22753 ft 359 kts 163°
2026-05-07 09:59 9.80873 124.15888 23364 ft 363 kts 163°
2026-05-07 09:59 9.78456 124.16643 23961 ft 366 kts 163°
2026-05-07 10:00 9.75984 124.17413 24580 ft 368 kts 163°
2026-05-07 10:00 9.73543 124.18175 25305 ft 367 kts 162°
2026-05-07 10:00 9.71107 124.18934 26028 ft 365 kts 162°
2026-05-07 10:00 9.68698 124.19685 26703 ft 364 kts 162°
2026-05-07 10:01 9.66274 124.20441 27352 ft 363 kts 162°
2026-05-07 10:01 9.63890 124.21184 27965 ft 362 kts 162°
2026-05-07 10:01 9.61489 124.21934 28558 ft 361 kts 162°
2026-05-07 10:01 9.59089 124.22682 29125 ft 360 kts 162°
2026-05-07 10:02 9.56683 124.23432 29644 ft 360 kts 162°
2026-05-07 10:02 9.54286 124.24178 30083 ft 361 kts 163°
2026-05-07 10:02 9.51886 124.24926 30487 ft 363 kts 162°
2026-05-07 10:02 9.49447 124.25706 30871 ft 366 kts 162°
2026-05-07 10:03 9.47024 124.26500 30994 ft 368 kts 162°
2026-05-07 10:03 9.42135 124.28105 31000 ft 368 kts 162°
2026-05-07 10:04 9.37245 124.29707 31002 ft 368 kts 162°
2026-05-07 10:04 9.32352 124.31309 30341 ft 373 kts 162°
2026-05-07 10:04 9.29850 124.32127 29533 ft 381 kts 162°
2026-05-07 10:05 9.27342 124.32948 28960 ft 382 kts 162°
2026-05-07 10:05 9.24809 124.33775 28446 ft 382 kts 162°
2026-05-07 10:05 9.22255 124.34611 27905 ft 382 kts 162°
2026-05-07 10:05 9.19727 124.35437 27342 ft 382 kts 162°
2026-05-07 10:06 9.17186 124.36269 26766 ft 383 kts 162°
2026-05-07 10:06 9.14645 124.37099 26184 ft 384 kts 162°
2026-05-07 10:06 9.12127 124.37923 25638 ft 383 kts 162°
2026-05-07 10:06 9.09572 124.38758 25176 ft 380 kts 162°
2026-05-07 10:07 9.07086 124.39570 24723 ft 377 kts 162°
2026-05-07 10:07 9.04564 124.40394 24357 ft 371 kts 161°
2026-05-07 10:07 9.02201 124.41312 24157 ft 361 kts 155°
2026-05-07 10:07 9.00009 124.42454 23919 ft 347 kts 151°
2026-05-07 10:08 8.97924 124.43636 23479 ft 335 kts 150°
2026-05-07 10:08 8.95928 124.44782 22762 ft 332 kts 150°
2026-05-07 10:08 8.93927 124.45931 22007 ft 330 kts 150°
2026-05-07 10:08 8.91941 124.47067 21195 ft 329 kts 150°
2026-05-07 10:09 8.89932 124.48214 20302 ft 330 kts 150°
2026-05-07 10:09 8.87965 124.49335 19569 ft 325 kts 150°
2026-05-07 10:09 8.85988 124.50459 18591 ft 329 kts 150°
2026-05-07 10:09 8.83988 124.51597 17402 ft 338 kts 150°
2026-05-07 10:10 8.81934 124.52764 16402 ft 337 kts 150°
2026-05-07 10:10 8.79927 124.53905 15841 ft 323 kts 150°
2026-05-07 10:10 8.77993 124.55004 15174 ft 315 kts 150°
2026-05-07 10:10 8.76112 124.56073 14492 ft 309 kts 150°
2026-05-07 10:11 8.74263 124.57124 13763 ft 305 kts 150°
2026-05-07 10:11 8.72430 124.58166 13019 ft 301 kts 150°
2026-05-07 10:11 8.70603 124.59204 12275 ft 298 kts 150°
2026-05-07 10:11 8.68815 124.60220 11546 ft 295 kts 150°
2026-05-07 10:12 8.67033 124.61232 10817 ft 291 kts 150°
2026-05-07 10:12 8.65309 124.62211 10329 ft 280 kts 150°
2026-05-07 10:12 8.63646 124.63155 9944 ft 266 kts 150°
2026-05-07 10:12 8.62041 124.64016 9495 ft 258 kts 159°
2026-05-07 10:13 8.60306 124.64168 8969 ft 251 kts 197°
2026-05-07 10:13 8.58901 124.63248 8667 ft 236 kts 236°
2026-05-07 10:13 8.58428 124.61740 8388 ft 222 kts 274°
2026-05-07 10:13 8.58679 124.60239 8085 ft 213 kts 283°
2026-05-07 10:14 8.59050 124.58804 7652 ft 212 kts 285°
2026-05-07 10:14 8.59441 124.57376 7210 ft 211 kts 285°
2026-05-07 10:14 8.59839 124.55949 6775 ft 210 kts 288°
2026-05-07 10:14 8.60552 124.54705 6328 ft 208 kts 320°
2026-05-07 10:15 8.61861 124.54107 5896 ft 207 kts 357°
2026-05-07 10:15 8.63261 124.54326 5497 ft 207 kts 16°
2026-05-07 10:15 8.64696 124.54557 5075 ft 211 kts 357°
2026-05-07 10:15 8.66177 124.54366 4664 ft 216 kts 355°
2026-05-07 10:16 8.67694 124.54522 4234 ft 221 kts 20°
2026-05-07 10:16 8.69023 124.55321 3810 ft 226 kts 45°
2026-05-07 10:16 8.69869 124.56647 3388 ft 230 kts 72°
2026-05-07 10:16 8.69989 124.58243 2960 ft 233 kts 103°
2026-05-07 10:17 8.69244 124.59689 2535 ft 236 kts 134°
2026-05-07 10:17 8.67957 124.60715 2167 ft 237 kts 147°
2026-05-07 10:17 8.66546 124.61558 1919 ft 232 kts 150°
2026-05-07 10:17 8.65171 124.62324 1893 ft 217 kts 151°
2026-05-07 10:18 8.63831 124.62869 1858 ft 199 kts 177°
2026-05-07 10:18 8.62557 124.62460 1868 ft 196 kts 225°
2026-05-07 10:18 8.61985 124.61247 1896 ft 196 kts 267°
2026-05-07 10:18 8.62044 124.59883 1917 ft 196 kts 275°
2026-05-07 10:19 8.62125 124.58501 1907 ft 196 kts 271°
2026-05-07 10:19 8.62115 124.57119 1903 ft 195 kts 268°
2026-05-07 10:19 8.62031 124.55763 1950 ft 189 kts 265°
2026-05-07 10:19 8.61923 124.54493 1725 ft 180 kts 265°
2026-05-07 10:20 8.61820 124.53257 1449 ft 171 kts 265°
2026-05-07 10:20 8.61729 124.52089 1242 ft 160 kts 265°
2026-05-07 10:20 8.61645 124.50998 1035 ft 150 kts 265°
2026-05-07 10:20 8.61565 124.49970 864 ft 144 kts 265°
2026-05-07 10:21 8.61489 124.48980 637 ft 141 kts 265°
2026-05-07 10:21 8.61415 124.47988 464 ft 139 kts 265°
2026-05-07 10:21 8.61337 124.47026 265 ft 138 kts 264°
2026-05-07 10:21 8.61257 124.46094 179 ft 123 kts 266°
2026-05-07 10:22 8.61206 124.45406 192 ft 73 kts 265°
2026-05-07 10:22 8.61174 124.45068 192 ft 21 kts 255°
2026-05-07 10:22 8.61180 124.45008 192 ft 8 kts 62°